| time (UTC) | temp F | wind direction | speed knots | gust knots | rain 1hr in | rain 24hr in | rain mn in | humidity % | barometer mb |
| 20260506180538 | 69 | 350 | 0.0 | 3.5 | 0.00 | 0.00 | 0.00 | 55 | 1020.4 |
| 20260506180023 | 69 | 19 | 0.0 | 3.5 | 0.00 | 0.00 | 0.00 | 55 | 1020.4 |
| 20260506175559 | 68 | 206 | 0.0 | 3.5 | 0.00 | 0.00 | 0.00 | 55 | 1020.4 |
| 20260506175043 | 67 | 144 | 0.0 | 1.7 | 0.00 | 0.00 | 0.00 | 55 | 1020.4 |
| 20260506174524 | 66 | 236 | 0.0 | 1.7 | 0.00 | 0.00 | 0.00 | 55 | 1020.4 |
| 20260506174103 | 66 | 233 | 0.0 | 1.7 | 0.00 | 0.00 | 0.00 | 54 | 1020.4 |
| 20260506173541 | 67 | 342 | 0.9 | 1.7 | 0.00 | 0.00 | 0.00 | 53 | 1020.5 |
| 20260506173023 | 67 | 238 | 0.0 | 2.6 | 0.00 | 0.00 | 0.00 | 53 | 1020.5 |
| 20260506172606 | 66 | 236 | 0.9 | 2.6 | 0.00 | 0.00 | 0.00 | 54 | 1020.6 |
| 20260506172045 | 66 | 5 | 0.0 | 1.7 | 0.00 | 0.00 | 0.00 | 53 | 1020.6 |
| 20260506171534 | 66 | 21 | 0.0 | 2.6 | 0.00 | 0.00 | 0.00 | 53 | 1020.6 |
| 20260506171105 | 66 | 313 | 0.0 | 3.5 | 0.00 | 0.00 | 0.00 | 53 | 1020.6 |
| 20260506170543 | 66 | 277 | 0.0 | 3.5 | 0.00 | 0.00 | 0.00 | 52 | 1020.7 |
| 20260506170024 | 66 | 282 | 0.0 | 2.6 | 0.00 | 0.00 | 0.00 | 53 | 1020.6 |
| 20260506165503 | 65 | 233 | 0.0 | 1.7 | 0.00 | 0.00 | 0.00 | 52 | 1020.7 |
| 20260506165045 | 65 | 264 | 0.0 | 1.7 | 0.00 | 0.00 | 0.00 | 52 | 1020.6 |
| 20260506164525 | 65 | 250 | 0.0 | 0.9 | 0.00 | 0.00 | 0.00 | 49 | 1020.7 |
| 20260506164004 | 64 | 276 | 0.0 | 1.7 | 0.00 | 0.00 | 0.00 | 48 | 1020.6 |
| 20260506163546 | 64 | 355 | 0.0 | 1.7 | 0.00 | 0.00 | 0.00 | 42 | 1020.6 |
| 20260506163024 | 63 | 355 | 0.0 | 1.7 | 0.00 | 0.00 | 0.00 | 38 | 1020.7 |
| 20260506162501 | 63 | 335 | 0.0 | 1.7 | 0.00 | 0.00 | 0.00 | 42 | 1020.7 |
| 20260506162045 | 63 | 269 | 0.0 | 2.6 | 0.00 | 0.00 | 0.00 | 41 | 1020.7 |
| 20260506161525 | 62 | 205 | 0.0 | 2.6 | 0.00 | 0.00 | 0.00 | 43 | 1020.7 |
| 20260506161004 | 62 | 280 | 0.0 | 1.7 | 0.00 | 0.00 | 0.00 | 40 | 1020.7 |
| 20260506160547 | 61 | 236 | 0.0 | 1.7 | 0.00 | 0.00 | 0.00 | 37 | 1020.7 |
| 20260506160025 | 62 | 357 | 0.0 | 1.7 | 0.00 | 0.00 | 0.00 | 35 | 1020.7 |
| 20260506155503 | 61 | 140 | 0.0 | 0.9 | 0.00 | 0.00 | 0.00 | 39 | 1020.7 |
| 20260506155044 | 61 | 214 | 0.0 | 1.7 | 0.00 | 0.00 | 0.00 | 36 | 1020.7 |
| 20260506154523 | 61 | 228 | 0.0 | 2.6 | 0.00 | 0.00 | 0.00 | 36 | 1020.8 |
| 20260506154003 | 61 | 252 | 0.0 | 1.7 | 0.00 | 0.00 | 0.00 | 25 | 1020.7 |
| 20260506153546 | 60 | 9 | 0.0 | 1.7 | 0.00 | 0.00 | 0.00 | 19 | 1020.7 |
| 20260506153034 | 59 | 9 | 0.0 | 1.7 | 0.00 | 0.00 | 0.00 | 18 | 1020.6 |
| 20260506152517 | 59 | 9 | 0.0 | 1.7 | 0.00 | 0.00 | 0.00 | 18 | 1020.7 |
| 20260506152001 | 59 | 20 | 0.0 | 0.9 | 0.00 | 0.00 | 0.00 | 17 | 1020.6 |
| 20260506151545 | 59 | 20 | 0.0 | 0.9 | 0.00 | 0.00 | 0.00 | 10 | 1020.6 |
| 20260506151024 | 59 | 20 | 0.0 | 0.0 | 0.00 | 0.00 | 0.00 | 2 | 1020.6 |
| 20260506150513 | 58 | 20 | 0.0 | 0.0 | 0.00 | 0.00 | 0.00 | 1 | 1020.6 |
| 20260506150056 | 57 | 20 | 0.0 | 0.0 | 0.00 | 0.00 | 0.00 | 1 | 1020.6 |
| 20260506145534 | 57 | 281 | 0.0 | 0.0 | 0.00 | 0.00 | 0.00 | 1 | 1020.6 |
| 20260506145013 | 57 | 281 | 0.0 | 0.0 | 0.00 | 0.00 | 0.00 | 1 | 1020.6 |
| 20260506144603 | 57 | 281 | 0.0 | 0.0 | 0.00 | 0.00 | 0.00 | 1 | 1020.6 |
| 20260506144035 | 57 | 245 | 0.0 | 0.9 | 0.00 | 0.00 | 0.00 | 1 | 1020.6 |
| 20260506143515 | 57 | 245 | 0.0 | 0.9 | 0.00 | 0.00 | 0.00 | 1 | 1020.5 |
| 20260506143059 | 56 | 244 | 0.0 | 0.0 | 0.00 | 0.00 | 0.00 | 1 | 1020.5 |
| 20260506142538 | 56 | 244 | 0.0 | 0.0 | 0.00 | 0.00 | 0.00 | 1 | 1020.4 |
| 20260506142017 | 56 | 244 | 0.0 | 0.0 | 0.00 | 0.00 | 0.00 | 1 | 1020.4 |
| 20260506141600 | 55 | 244 | 0.0 | 0.0 | 0.00 | 0.00 | 0.00 | 1 | 1020.3 |
| 20260506141040 | 54 | 244 | 0.0 | 0.0 | 0.00 | 0.00 | 0.00 | 1 | 1020.3 |
| 20260506140520 | 54 | 244 | 0.0 | 0.0 | 0.00 | 0.00 | 0.00 | 1 | 1020.2 |
| 20260506140104 | 54 | 244 | 0.0 | 0.0 | 0.00 | 0.00 | 0.00 | 1 | 1020.1 |
| 20260506135540 | 54 | 244 | 0.0 | 0.0 | 0.00 | 0.00 | 0.00 | 1 | 1020.0 |
| 20260506135020 | 54 | 244 | 0.0 | 0.0 | 0.00 | 0.00 | 0.00 | 1 | 1020.0 |
| 20260506134603 | 54 | 243 | 0.0 | 0.0 | 0.00 | 0.00 | 0.00 | 1 | 1020.0 |
| 20260506134043 | 54 | 244 | 0.0 | 0.0 | 0.00 | 0.00 | 0.00 | 1 | 1020.0 |
| 20260506133523 | 54 | 244 | 0.0 | 0.0 | 0.00 | 0.00 | 0.00 | 1 | 1020.0 |
| 20260506133002 | 54 | 244 | 0.0 | 0.0 | 0.00 | 0.00 | 0.00 | 1 | 1019.9 |
| 20260506132545 | 54 | 244 | 0.0 | 0.0 | 0.00 | 0.00 | 0.00 | 1 | 1020.0 |
| 20260506132023 | 54 | 244 | 0.0 | 0.0 | 0.00 | 0.00 | 0.00 | 1 | 1019.9 |
| 20260506131501 | 54 | 244 | 0.0 | 0.0 | 0.00 | 0.00 | 0.00 | 1 | 1019.8 |
| 20260506131044 | 54 | 244 | 0.0 | 0.0 | 0.00 | 0.00 | 0.00 | 1 | 1019.8 |
| 20260506130523 | 54 | 244 | 0.0 | 0.0 | 0.00 | 0.00 | 0.00 | 1 | 1019.8 |
| 20260506130106 | 54 | 244 | 0.0 | 0.0 | 0.00 | 0.00 | 0.00 | 1 | 1019.7 |
| 20260506125550 | 54 | 244 | 0.0 | 0.0 | 0.00 | 0.00 | 0.00 | 1 | 1019.8 |
| 20260506125030 | 54 | 244 | 0.0 | 0.0 | 0.00 | 0.00 | 0.00 | 1 | 1019.7 |
| 20260506124509 | 54 | 244 | 0.0 | 0.0 | 0.00 | 0.00 | 0.00 | 1 | 1019.7 |
| 20260506124052 | 55 | 244 | 0.0 | 0.0 | 0.00 | 0.00 | 0.00 | 1 | 1019.7 |
| 20260506123531 | 55 | 244 | 0.0 | 0.0 | 0.00 | 0.00 | 0.00 | 1 | 1019.6 |
| 20260506123010 | 55 | 244 | 0.0 | 0.0 | 0.00 | 0.00 | 0.00 | 1 | 1019.6 |
| 20260506122553 | 55 | 244 | 0.0 | 0.0 | 0.00 | 0.00 | 0.00 | 1 | 1019.6 |
| 20260506122033 | 55 | 244 | 0.0 | 0.0 | 0.00 | 0.00 | 0.00 | 1 | 1019.6 |
| 20260506121512 | 55 | 244 | 0.0 | 0.0 | 0.00 | 0.00 | 0.00 | 1 | 1019.6 |
| 20260506121056 | 55 | 244 | 0.0 | 0.0 | 0.00 | 0.00 | 0.00 | 1 | 1019.6 |
| 20260506120535 | 55 | 244 | 0.0 | 0.0 | 0.00 | 0.00 | 0.00 | 1 | 1019.5 |
| 20260506120018 | 55 | 244 | 0.0 | 0.0 | 0.00 | 0.00 | 0.00 | 1 | 1019.6 |
| 20260506115558 | 55 | 244 | 0.0 | 0.0 | 0.00 | 0.00 | 0.00 | 1 | 1019.5 |
| 20260506115037 | 55 | 244 | 0.0 | 0.0 | 0.00 | 0.00 | 0.00 | 1 | 1019.5 |
| 20260506114531 | 55 | 244 | 0.0 | 0.0 | 0.00 | 0.00 | 0.00 | 1 | 1019.5 |
| 20260506114058 | 55 | 244 | 0.0 | 0.0 | 0.00 | 0.00 | 0.00 | 1 | 1019.4 |
| 20260506113538 | 55 | 244 | 0.0 | 0.0 | 0.00 | 0.00 | 0.00 | 1 | 1019.4 |
| 20260506113019 | 55 | 244 | 0.0 | 0.0 | 0.00 | 0.00 | 0.00 | 1 | 1019.4 |
| 20260506112602 | 55 | 244 | 0.0 | 0.0 | 0.00 | 0.00 | 0.00 | 1 | 1019.3 |
| 20260506112040 | 55 | 244 | 0.0 | 0.0 | 0.00 | 0.00 | 0.00 | 1 | 1019.3 |
| 20260506111519 | 55 | 244 | 0.0 | 0.0 | 0.00 | 0.00 | 0.00 | 1 | 1019.2 |
| 20260506111103 | 55 | 244 | 0.0 | 0.0 | 0.00 | 0.00 | 0.00 | 2 | 1019.1 |
| 20260506110542 | 55 | 244 | 0.0 | 0.0 | 0.00 | 0.00 | 0.00 | 3 | 1019.1 |
| 20260506110024 | 55 | 244 | 0.0 | 0.0 | 0.00 | 0.00 | 0.00 | 4 | 1019.0 |
| 20260506105502 | 55 | 244 | 0.0 | 0.0 | 0.00 | 0.00 | 0.00 | 5 | 1019.1 |
| 20260506105044 | 55 | 244 | 0.0 | 0.0 | 0.00 | 0.00 | 0.00 | 5 | 1019.1 |
| 20260506104523 | 55 | 244 | 0.0 | 0.0 | 0.00 | 0.00 | 0.00 | 6 | 1019.1 |
| 20260506104104 | 55 | 244 | 0.0 | 0.0 | 0.00 | 0.00 | 0.00 | 7 | 1019.1 |
| 20260506103544 | 55 | 244 | 0.0 | 0.0 | 0.00 | 0.00 | 0.00 | 9 | 1019.0 |
| 20260506103023 | 55 | 244 | 0.0 | 0.0 | 0.00 | 0.00 | 0.00 | 11 | 1019.0 |
| 20260506102504 | 55 | 244 | 0.0 | 0.0 | 0.00 | 0.00 | 0.00 | 11 | 1018.9 |
| 20260506102045 | 55 | 244 | 0.0 | 0.0 | 0.00 | 0.00 | 0.00 | 13 | 1018.9 |
| 20260506101524 | 55 | 243 | 0.0 | 0.0 | 0.00 | 0.00 | 0.00 | 13 | 1018.9 |
| 20260506101003 | 55 | 244 | 0.0 | 1.7 | 0.00 | 0.00 | 0.00 | 14 | 1018.8 |
| 20260506100546 | 55 | 244 | 0.0 | 1.7 | 0.00 | 0.00 | 0.00 | 15 | 1018.8 |
| 20260506100026 | 55 | 271 | 0.0 | 1.7 | 0.00 | 0.01 | 0.00 | 15 | 1018.9 |
| 20260506095505 | 55 | 255 | 0.0 | 1.7 | 0.00 | 0.01 | 0.00 | 15 | 1018.8 |
| 20260506095048 | 55 | 305 | 0.0 | 1.7 | 0.00 | 0.01 | 0.00 | 15 | 1018.9 |
| 20260506094527 | 55 | 355 | 0.0 | 0.9 | 0.00 | 0.01 | 0.00 | 14 | 1019.0 |
| 20260506094007 | 55 | 355 | 0.0 | 0.9 | 0.00 | 0.01 | 0.00 | 15 | 1019.0 |
| 20260506093546 | 55 | 355 | 0.0 | 0.9 | 0.00 | 0.01 | 0.00 | 15 | 1019.0 |
| 20260506093027 | 55 | 3 | 0.0 | 0.0 | 0.00 | 0.01 | 0.00 | 15 | 1019.0 |
| 20260506092509 | 55 | 3 | 0.0 | 0.0 | 0.00 | 0.01 | 0.00 | 15 | 1019.0 |
| 20260506092049 | 55 | 3 | 0.0 | 0.9 | 0.00 | 0.01 | 0.00 | 16 | 1019.0 |
| 20260506091528 | 55 | 3 | 0.0 | 0.9 | 0.00 | 0.01 | 0.00 | 17 | 1019.0 |
| 20260506091008 | 55 | 288 | 0.0 | 1.7 | 0.00 | 0.01 | 0.00 | 17 | 1019.0 |
| 20260506090550 | 55 | 107 | 0.0 | 1.7 | 0.00 | 0.01 | 0.00 | 17 | 1019.0 |
| 20260506090030 | 55 | 218 | 0.0 | 2.6 | 0.00 | 0.03 | 0.00 | 18 | 1019.0 |
| 20260506085503 | 55 | 240 | 0.0 | 2.6 | 0.00 | 0.03 | 0.00 | 18 | 1019.0 |
| 20260506085046 | 55 | 289 | 0.0 | 0.0 | 0.00 | 0.03 | 0.00 | 18 | 1019.0 |
| 20260506084526 | 55 | 289 | 0.0 | 1.7 | 0.00 | 0.03 | 0.00 | 18 | 1019.0 |
| 20260506084005 | 55 | 289 | 0.0 | 1.7 | 0.00 | 0.03 | 0.00 | 19 | 1019.0 |
| 20260506083547 | 55 | 286 | 0.0 | 1.7 | 0.00 | 0.03 | 0.00 | 19 | 1019.0 |
| 20260506083028 | 55 | 282 | 0.0 | 2.6 | 0.00 | 0.03 | 0.00 | 19 | 1019.0 |
| 20260506082506 | 55 | 37 | 0.0 | 2.6 | 0.00 | 0.03 | 0.00 | 18 | 1019.0 |
| 20260506082051 | 55 | 325 | 0.0 | 1.7 | 0.00 | 0.03 | 0.00 | 18 | 1018.9 |
| 20260506081529 | 55 | 233 | 0.0 | 1.7 | 0.00 | 0.03 | 0.00 | 19 | 1018.9 |
| 20260506081009 | 55 | 240 | 0.0 | 0.9 | 0.00 | 0.03 | 0.00 | 21 | 1018.9 |
| 20260506080552 | 55 | 245 | 0.0 | 2.6 | 0.00 | 0.03 | 0.00 | 21 | 1018.9 |
| 20260506073030 | 55 | 249 | 0.9 | 2.6 | 0.00 | 0.12 | 0.00 | 23 | 1018.7 |
| 20260506072008 | 55 | 221 | 0.0 | 2.6 | 0.00 | 0.12 | 0.00 | 22 | 1018.7 |
| 20260506071554 | 55 | 187 | 0.0 | 2.6 | 0.00 | 0.12 | 0.00 | 23 | 1018.7 |
| 20260506071024 | 55 | 314 | 0.0 | 2.6 | 0.00 | 0.12 | 0.00 | 23 | 1018.6 |
| 20260506070505 | 55 | 245 | 0.0 | 1.7 | 0.00 | 0.12 | 0.00 | 20 | 1018.7 |
| 20260506062010 | 55 | 253 | 0.0 | 1.7 | 0.00 | 0.13 | 0.12 | 12 | 1018.3 |
| 20260506061553 | 56 | 243 | 0.0 | 1.7 | 0.00 | 0.13 | 0.12 | 9 | 1018.2 |
| 20260506061034 | 56 | 246 | 0.0 | 1.7 | 0.00 | 0.13 | 0.12 | 5 | 1018.2 |
| 20260506060512 | 56 | 262 | 0.0 | 0.9 | 0.00 | 0.13 | 0.12 | 5 | 1018.2 |
| 20260506051033 | 56 | 231 | 0.9 | 4.3 | 0.00 | 0.19 | 0.12 | 1 | 1017.8 |
| 20260506050509 | 56 | 226 | 1.7 | 4.3 | 0.00 | 0.19 | 0.12 | 1 | 1017.8 |
| 20260506045011 | 56 | 188 | 1.7 | 4.3 | 0.00 | 0.25 | 0.12 | 1 | 1017.6 |
| 20260506044555 | 56 | 167 | 0.9 | 2.6 | 0.00 | 0.25 | 0.12 | 1 | 1017.7 |
| 20260506044033 | 56 | 173 | 0.0 | 4.3 | 0.00 | 0.25 | 0.12 | 1 | 1017.5 |
| 20260506043512 | 56 | 168 | 1.7 | 4.3 | 0.00 | 0.25 | 0.12 | 1 | 1017.4 |
| 20260506043104 | 56 | 233 | 0.9 | 4.3 | 0.00 | 0.25 | 0.12 | 1 | 1017.3 |
| 20260506042543 | 56 | 177 | 1.7 | 4.3 | 0.00 | 0.25 | 0.12 | 1 | 1017.3 |
| 20260506042022 | 56 | 181 | 1.7 | 4.3 | 0.00 | 0.25 | 0.12 | 1 | 1017.3 |
| 20260506041606 | 56 | 214 | 1.7 | 4.3 | 0.00 | 0.25 | 0.12 | 1 | 1017.2 |
| 20260506041044 | 56 | 137 | 0.0 | 3.5 | 0.00 | 0.25 | 0.12 | 1 | 1017.2 |
| 20260506040525 | 56 | 171 | 0.9 | 3.5 | 0.00 | 0.25 | 0.12 | 2 | 1017.2 |
| 20260506040002 | 56 | 186 | 0.9 | 3.5 | 0.00 | 0.26 | 0.12 | 2 | 1017.2 |
| 20260506035545 | 56 | 149 | 0.9 | 4.3 | 0.00 | 0.26 | 0.12 | 3 | 1017.1 |
| 20260506035025 | 56 | 141 | 0.9 | 4.3 | 0.00 | 0.26 | 0.12 | 3 | 1017.1 |
| 20260506034503 | 56 | 163 | 0.9 | 3.5 | 0.00 | 0.26 | 0.12 | 5 | 1017.0 |
| 20260506034048 | 56 | 208 | 0.9 | 4.3 | 0.00 | 0.26 | 0.12 | 5 | 1016.9 |
| 20260506033525 | 56 | 165 | 1.7 | 4.3 | 0.00 | 0.26 | 0.12 | 6 | 1016.8 |
| 20260506033005 | 56 | 166 | 0.0 | 2.6 | 0.00 | 0.26 | 0.12 | 7 | 1016.8 |
| 20260506032548 | 56 | 151 | 0.0 | 2.6 | 0.00 | 0.26 | 0.12 | 8 | 1016.7 |
| 20260506032028 | 56 | 217 | 0.9 | 3.5 | 0.00 | 0.26 | 0.12 | 10 | 1016.5 |
| 20260506031516 | 56 | 150 | 1.7 | 3.5 | 0.00 | 0.26 | 0.12 | 13 | 1016.5 |
| 20260506031049 | 57 | 159 | 0.0 | 2.6 | 0.00 | 0.26 | 0.12 | 14 | 1016.4 |
| 20260506030531 | 57 | 252 | 0.0 | 2.6 | 0.00 | 0.26 | 0.12 | 16 | 1016.3 |
| 20260506030021 | 57 | 212 | 0.0 | 3.5 | 0.00 | 0.27 | 0.12 | 18 | 1016.3 |
| 20260506025551 | 57 | 266 | 0.9 | 3.5 | 0.00 | 0.27 | 0.12 | 20 | 1016.2 |
| 20260506025033 | 57 | 226 | 1.7 | 4.3 | 0.00 | 0.27 | 0.12 | 22 | 1016.2 |
| 20260506024520 | 58 | 221 | 0.0 | 4.3 | 0.00 | 0.27 | 0.12 | 23 | 1016.2 |
| 20260506024053 | 58 | 160 | 0.9 | 4.3 | 0.00 | 0.27 | 0.12 | 23 | 1016.1 |
| 20260506023532 | 58 | 160 | 0.9 | 4.3 | 0.00 | 0.27 | 0.12 | 26 | 1016.1 |
| 20260506023012 | 58 | 201 | 0.9 | 4.3 | 0.00 | 0.27 | 0.12 | 28 | 1016.1 |
| 20260506022555 | 58 | 190 | 1.7 | 4.3 | 0.00 | 0.27 | 0.12 | 30 | 1016.1 |
| 20260506022034 | 58 | 186 | 1.7 | 5.2 | 0.00 | 0.27 | 0.12 | 31 | 1016.1 |
| 20260506021513 | 59 | 157 | 0.9 | 6.1 | 0.00 | 0.27 | 0.12 | 31 | 1016.0 |
| 20260506021057 | 59 | 204 | 2.6 | 6.1 | 0.00 | 0.27 | 0.12 | 35 | 1015.9 |
| 20260506020536 | 59 | 145 | 0.9 | 7.0 | 0.00 | 0.27 | 0.12 | 36 | 1015.8 |
| 20260506020015 | 59 | 174 | 1.7 | 7.0 | 0.00 | 0.27 | 0.12 | 36 | 1015.7 |
| 20260506015558 | 59 | 243 | 2.6 | 5.2 | 0.00 | 0.27 | 0.12 | 38 | 1015.6 |
| 20260506015040 | 59 | 236 | 1.7 | 5.2 | 0.00 | 0.27 | 0.12 | 38 | 1015.6 |
| 20260506014514 | 59 | 177 | 0.0 | 6.1 | 0.00 | 0.27 | 0.12 | 35 | 1015.5 |
| 20260506014056 | 59 | 220 | 1.7 | 7.8 | 0.00 | 0.27 | 0.12 | 35 | 1015.5 |
| 20260506013536 | 59 | 155 | 2.6 | 7.8 | 0.00 | 0.27 | 0.12 | 39 | 1015.5 |
| 20260506013016 | 60 | 288 | 1.7 | 5.2 | 0.00 | 0.27 | 0.12 | 37 | 1015.5 |
| 20260506012559 | 60 | 203 | 1.7 | 5.2 | 0.00 | 0.27 | 0.12 | 37 | 1015.5 |
| 20260506012039 | 60 | 161 | 0.9 | 5.2 | 0.00 | 0.27 | 0.12 | 35 | 1015.5 |
| 20260506011529 | 60 | 229 | 0.9 | 5.2 | 0.00 | 0.27 | 0.12 | 34 | 1015.6 |
| 20260506011101 | 60 | 229 | 1.7 | 5.2 | 0.00 | 0.27 | 0.12 | 37 | 1015.6 |
| 20260506010540 | 61 | 285 | 0.9 | 4.3 | 0.00 | 0.27 | 0.12 | 38 | 1015.6 |
| 20260506010020 | 61 | 219 | 0.0 | 3.5 | 0.00 | 0.27 | 0.12 | 34 | 1015.6 |
| 20260506005603 | 61 | 233 | 0.9 | 3.5 | 0.00 | 0.27 | 0.12 | 36 | 1015.5 |
| 20260506005042 | 61 | 169 | 0.9 | 2.6 | 0.00 | 0.27 | 0.12 | 36 | 1015.5 |
| 20260506004540 | 61 | 225 | 0.9 | 3.5 | 0.00 | 0.27 | 0.12 | 34 | 1015.5 |
| 20260506004001 | 60 | 319 | 0.0 | 4.3 | 0.00 | 0.27 | 0.12 | 33 | 1015.4 |
| 20260506003544 | 60 | 211 | 1.7 | 3.5 | 0.00 | 0.27 | 0.12 | 33 | 1015.4 |
| 20260506003032 | 60 | 237 | 0.9 | 5.2 | 0.00 | 0.27 | 0.12 | 32 | 1015.4 |
| 20260506002504 | 60 | 151 | 0.9 | 6.1 | 0.00 | 0.27 | 0.12 | 31 | 1015.3 |
| 20260506002045 | 60 | 144 | 1.7 | 7.0 | 0.00 | 0.27 | 0.12 | 27 | 1015.3 |
| 20260506001526 | 60 | 160 | 3.5 | 7.0 | 0.00 | 0.27 | 0.12 | 30 | 1015.3 |
| 20260506001005 | 60 | 117 | 3.5 | 7.8 | 0.00 | 0.27 | 0.12 | 31 | 1015.2 |
| 20260506000548 | 60 | 131 | 4.3 | 8.7 | 0.00 | 0.27 | 0.12 | 29 | 1015.2 |
| 20260506000027 | 60 | 172 | 3.5 | 10.4 | 0.00 | 0.27 | 0.12 | 29 | 1015.3 |
| 20260505235506 | 60 | 179 | 4.3 | 10.4 | 0.00 | 0.27 | 0.12 | 27 | 1015.2 |
| 20260505235049 | 61 | 228 | 1.7 | 5.2 | 0.00 | 0.27 | 0.12 | 27 | 1015.2 |
| 20260505234528 | 61 | 160 | 0.9 | 6.1 | 0.00 | 0.27 | 0.12 | 28 | 1015.2 |
| 20260505234008 | 61 | 229 | 1.7 | 7.8 | 0.00 | 0.27 | 0.12 | 27 | 1015.3 |
| 20260505233550 | 60 | 240 | 1.7 | 7.8 | 0.00 | 0.27 | 0.12 | 29 | 1015.3 |
| 20260505233030 | 60 | 155 | 2.6 | 7.0 | 0.00 | 0.27 | 0.12 | 30 | 1015.3 |
| 20260505232518 | 60 | 160 | 3.5 | 8.7 | 0.00 | 0.27 | 0.12 | 30 | 1015.3 |
| 20260505232102 | 60 | 121 | 2.6 | 10.4 | 0.00 | 0.27 | 0.12 | 26 | 1015.3 |
| 20260505231541 | 60 | 220 | 5.2 | 10.4 | 0.00 | 0.27 | 0.12 | 32 | 1015.3 |
| 20260505231020 | 60 | 139 | 5.2 | 8.7 | 0.00 | 0.27 | 0.12 | 30 | 1015.3 |
| 20260505230604 | 61 | 208 | 4.3 | 10.4 | 0.00 | 0.27 | 0.12 | 36 | 1015.3 |
| 20260505230048 | 61 | 121 | 5.2 | 10.4 | 0.00 | 0.27 | 0.12 | 40 | 1015.2 |
| 20260505225521 | 61 | 185 | 4.3 | 10.4 | 0.00 | 0.27 | 0.12 | 40 | 1015.2 |
| 20260505225001 | 62 | 174 | 4.3 | 10.4 | 0.00 | 0.27 | 0.12 | 42 | 1015.2 |
| 20260505224547 | 63 | 180 | 3.5 | 7.0 | 0.00 | 0.27 | 0.12 | 44 | 1015.3 |
| 20260505224021 | 63 | 152 | 0.9 | 4.3 | 0.00 | 0.27 | 0.12 | 45 | 1015.3 |
| 20260505223502 | 63 | 167 | 0.9 | 7.8 | 0.00 | 0.27 | 0.12 | 46 | 1015.3 |
| 20260505223047 | 63 | 224 | 0.9 | 7.8 | 0.00 | 0.27 | 0.12 | 45 | 1015.3 |
| 20260505222524 | 63 | 224 | 1.7 | 7.8 | 0.00 | 0.27 | 0.12 | 46 | 1015.3 |
| 20260505222003 | 63 | 175 | 2.6 | 7.8 | 0.00 | 0.27 | 0.12 | 44 | 1015.3 |
| 20260505221547 | 63 | 143 | 2.6 | 8.7 | 0.00 | 0.27 | 0.12 | 46 | 1015.3 |
| 20260505221026 | 63 | 226 | 2.6 | 8.7 | 0.00 | 0.27 | 0.12 | 46 | 1015.3 |
| 20260505220504 | 63 | 239 | 0.9 | 6.1 | 0.00 | 0.27 | 0.12 | 49 | 1015.4 |
| 20260505220048 | 63 | 225 | 1.7 | 6.1 | 0.00 | 0.27 | 0.12 | 49 | 1015.4 |
| 20260505215527 | 64 | 219 | 1.7 | 4.3 | 0.00 | 0.27 | 0.12 | 50 | 1015.4 |
| 20260505215006 | 64 | 214 | 0.9 | 3.5 | 0.00 | 0.27 | 0.12 | 51 | 1015.5 |
| 20260505214550 | 64 | 184 | 0.0 | 3.5 | 0.00 | 0.27 | 0.12 | 50 | 1015.5 |
| 20260505214028 | 64 | 246 | 0.9 | 4.3 | 0.00 | 0.27 | 0.12 | 50 | 1015.6 |
| 20260505213512 | 64 | 217 | 0.9 | 3.5 | 0.00 | 0.27 | 0.12 | 51 | 1015.6 |
| 20260505213051 | 64 | 345 | 0.9 | 3.5 | 0.00 | 0.27 | 0.12 | 49 | 1015.6 |
| 20260505212533 | 65 | 285 | 0.9 | 3.5 | 0.00 | 0.27 | 0.12 | 50 | 1015.6 |
| 20260505212010 | 65 | 238 | 0.0 | 1.7 | 0.00 | 0.27 | 0.12 | 50 | 1015.6 |